www.pogodaiklimat.ru

Погода и климат >> Архив погоды >> Хорватия >> Задар аэропорт


ПОГОДА в Задар аэропорту

  • Прогноз погоды в Задар аэропорту
  • Монитор погоды в Задар аэропорту

АРХИВ ПОГОДЫ в Задар аэропорту

Время (UTC), дата Ветер
(напр.,м/с)
 
Видим.   Явления Облачность Т
(С)
Тd
(С)
f
(%)
Тe
(С)
Тes
(С)
Комфортность P
(гПа)
Po
(гПа)
Тmin
(С)
Tmax
(С)
R
(мм)
R24
(мм)
S
(см)
03 17.08 штиль 0 30 км ясно +13.1 +10.5 84 +13 +13 1016.2 1006.2
06 17.08 штиль 0 30 км 1/0
[Ci fib]
+21.9 +12.1 54 +24 +28 комфорт 1016.6 1006.9 +12.6
09 17.08 СВ 1 30 км 3/0
[Ci fib]
+27.7 +10.7 35 +28 +42 жарко 1016.8 1007.2
12 17.08 З 6 30 км 4/0
[Ci sp]
+28.3 +13.0 39 +30 +35 жарко 1016.2 1006.7
15 17.08 СЗ 5 30 км 3/0
[Ci fib]
+29.1 +9.1 29 +29 +32 жарко 1015.8 1006.3
18 17.08 СЗ 2 30 км 6/0
[Cs]
+23.6 +11.5 47 +25 +25 комфорт 1015.6 1005.9 +29.7
21 17.08 ЮВ 2 30 км ясно +16.4 +12.3 77 +17 +17 1016.0 1006.1
00 18.08 ЮВ 2 30 км ясно +15.2 +12.7 85 +15 +15 1016.5 1006.5
03 18.08 ЮВ 2 30 км ясно +15.1 +13.4 90 +15 +15 1016.3 1006.3
06 18.08 ЮВ 2 30 км 1/0
[Ci fib]
+21.6 +17.5 77 +26 +28 душно 1016.1 1006.4 +14.5
09 18.08 З 2 30 км 1/0
[Ci fib]
+29.5 +10.1 30 +30 +42 жарко 1016.1 1006.6
12 18.08 ЮЗ 5 30 км 1/0
[Ci fib]
+31.0 +12.8 33 +32 +40 жарко 1016.0 1006.5
15 18.08 З 4 30 км ясно +30.7 +13.0 34 +32 +35 жарко 1015.7 1006.2
18 18.08 СЗ 2 30 км 1/0
[Ci fib]
+26.4 +16.1 53 +30 +30 душно 1014.9 1005.3 +31.9
21 18.08 штиль 0 30 км ясно +19.1 +14.7 76 +20 +20 1016.1 1006.3
00 19.08 ЮВ 2 30 км ясно +17.6 +14.6 83 +18 +18 1016.3 1006.4
03 19.08 ЮВ 1 30 км ясно +16.6 +14.9 90 +17 +17 1016.2 1006.3
06 19.08 ЮВ 2 30 км ясно +22.5 +15.8 66 +27 +29 душно 1016.4 1006.7 +15.6
09 19.08 З 2 30 км ясно +31.3 +13.4 34 +33 +45 жарко 1016.1 1006.7
12 19.08 З 5 30 км 1/1 1500 м
[Cu hum]
+31.7 +13.1 32 +33 +40 жарко 1016.5 1007.1
15 19.08 З 4 30 км 1/1 1500 м
[Cu hum]
+31.4 +15.8 39 +34 +37 душно 1016.2 1006.8
18 19.08 СЗ 2 30 км ясно +26.2 +18.1 61 +31 +31 очень
душно
1016.2 1006.6 +32.7
21 19.08 штиль 0 30 км ясно +20.0 +17.1 83 +23 +23 комфорт 1017.2 1007.4
00 20.08 штиль 0 20 км ясно +18.9 +17.7 93 +20 +20 1017.3 1007.5
03 20.08 ЮВ 1 10 км ясно +17.1 +16.6 97 +18 +18 1017.1 1007.2
06 20.08 ЮВ 1 15 км {туман} ясно +22.2 +20.1 88 +28 +31 душно 1017.0 1007.3 +16.4
09 20.08 З 3 25 км ясно +31.6 +16.5 40 +35 +45 очень
душно
1017.0 1007.6
12 20.08 З 5 30 км ясно +33.1 +18.4 42 +38 +46 очень
душно
1016.9 1007.5
15 20.08 СЗ 4 30 км ясно +33.1 +13.3 30 +34 +37 очень
жарко
1016.5 1007.1
18 20.08 СЗ 2 25 км ясно +27.5 +15.8 49 +31 +31 душно 1016.0 1006.5 +34.0
21 20.08 штиль 0 25 км ясно +20.3 +15.3 73 +23 +23 комфорт 1016.9 1007.1
00 21.08 штиль 0 25 км ясно +18.1 +15.2 83 +18 +18 1016.7 1006.8
03 21.08 ЮВ 1 25 км ясно +17.6 +15.4 87 +19 +19 1016.7 1006.8
06 21.08 ЮВ 2 30 км ясно +23.4 +17.3 69 +29 +31 душно 1017.4 1007.7 +17.0
09 21.08 З 3 30 км ясно +31.8 +17.3 42 +36 +46 очень
душно
1017.1 1007.7
12 21.08 З 6 30 км ясно +33.5 +16.6 36 +36 +42 очень
душно
1016.4 1007.0
15 21.08 З 5 30 км 1/1 1200 м
[Cu hum]
+34.0 +17.8 38 +38 +40 очень
душно
1015.6 1006.3
18 21.08 В 5 20 км ясно +28.8 +17.0 49 +33 +33 очень
душно
1016.4 1006.9 +34.9
21 21.08 В 5 30 км ясно +27.0 +15.7 50 +30 +30 душно 1017.4 1007.8
00 22.08 В 5 30 км ясно +25.7 +15.4 53 +29 +29 душно 1017.9 1008.3
03 22.08 В 5 30 км ясно +25.5 +14.9 52 +28 +28 жарко 1017.7 1008.1
06 22.08 В 6 30 км 1/0
[Ac trans]
+26.2 +14.9 50 +29 +30 жарко 1018.5 1008.9 +24.8
09 22.08 В 4 30 км 1/0
[Ci fib]
+31.6 +14.6 36 +34 +42 душно 1019.0 1009.5
12 22.08 З 5 30 км ясно +34.1 +16.9 36 +37 +45 очень
душно
1018.1 1008.7
15 22.08 СЗ 5 30 км ясно +32.3 +17.3 41 +36 +39 очень
душно
1017.0 1007.6
18 22.08 З 3 30 км 5/0
[Cc]
+26.8 +20.1 67 +33 +33 очень
душно
1017.8 1008.2 +34.9
21 22.08 В 1 30 км 3/0
[Ci sp]
+25.6 +17.2 60 +30 +30 душно 1018.6 1009.0
00 23.08 В 3 30 км 1/0
[Ci sp]
+26.5 +17.0 56 +30 +30 душно 1018.3 1008.7
03 23.08 СВ 3 30 км 3/0
[Ci sp]
+26.2 +16.9 57 +30 +30 душно 1018.3 1008.7
06 23.08 В 4 30 км 5/0
[Ac trans]
+27.5 +16.9 52 +31 +32 душно 1018.5 1008.9 +23.1
09 23.08 З 4 25 км 6/1 1500 м
[Cu hum Ci sp]
+29.6 +18.3 51 +34 +41 очень
душно
1019.5 1010.0
12 23.08 В 3 25 км 6/1 1500 м
[Cu hum Ac cast Ci sp]
+31.3 +16.7 42 +35 +43 очень
душно
1018.8 1009.4
15 23.08 СЗ 5 20 км 4/1 1500 м
[Cu hum Ci fib]
+31.7 +18.5 46 +37 +39 очень
душно
1017.8 1008.4
18 23.08 штиль 0 20 км 6/0
[Ac cuf]
+27.5 +20.3 65 +34 +34 очень
душно
1017.8 1008.3 +32.2
21 23.08 штиль 0 20 км ясно +23.5 +17.8 70 +28 +28 душно 1018.5 1008.8
00 24.08 В 3 15 км ясно +23.0 +18.1 74 +29 +29 очень
душно
1017.6 1007.9

 

Местоположение метеостанции Задар аэропорт (Хорватия): широта 44.10 долгота 15.35 высота над уровнем моря 80 м.

В архиве по умолчанию представлена погода в Задар аэропорту за последнюю неделю. Архивные данные за месяц целиком и за предыдущие месяцы, начиная с января 2011 года, Вы можете получить, выбрав интересующий диапазон дат из раскрывающегося списка и нажав кнопку "Ввод!".


*Определитесь, кто Вы:
робот инопланетянин человек

Внимание! Время в таблицах - всемирное. Для получения местного времени необходимо прибавить поправку, которая равна 1 ч.

Смотрите также архив погоды в соседних городах и на ближайших метеорологических станциях:

Погода в Задаре (Хорватия) (11 км)
Погода в Госпиче (Хорватия) (50 км)
Погода в Шибенике (Хорватия) (61 км)
Погода в Мали-Лошине (Хорватия) (84 км)
Погода в Завизани (Хорватия) (85 км)
Погода в Рабе (Хорватия) (86 км)
Погода в Бихаче (Босния и Герцеговина) (90 км)
Погода в Сплит аэропорту (Хорватия) (99 км)
Погода в Сене (Хорватия) (106 км)
Погода в Сплите (Хорватия) (108 км)

Пояснения к столбцам:

Ветер - указаны скорость ветра в м/с - средняя за 10 мин, порывы в срок и между сроками (в фигурных скобках) и направление, откуда дует ветер: С - северный, СВ - северо-восточный, В - восточный, ЮВ - юго-восточный, Ю - южный, ЮЗ - юго-западный, З - западный, СЗ - северо-западный.
Видимость - горизонтальная дальность видимости в метрах или километрах. При видимости от 1 до 10 км при отсутствии осадков обычно наблюдается дымка, при ухудшении видимости до 1 км и менее - туман. В сухую погоду видимость может ухудшаться дымом, пылью или мглою.
Явления - указаны атмосферные явления, наблюдавшиеся в срок или в последний час перед сроком; фигурными скобками обозначены явления, наблюдавшиеся между сроками (за 1-3 часа до срока); квадратными скобками обозначены град или гололедные отложения с указанием их диаметра в мм.
Облачность - указаны через наклонную черту общая и нижняя облачность в баллах и высота нижней границы облаков в метрах; квадратными скобками обозначены формы облаков: Ci - перистые, Cs - перисто-слоистые, Cc - перисто-кучевые, Ac - высококучевые, As - высокослоистые, Sc - слоисто-кучевые, Ns - слоисто-дождевые, Cu - кучевые, Cb - кучево-дождевые. Подробнее классификацию облаков см. в Атласе облаков (PDF).
T - Температура воздуха - температура, измеренная на высоте 2 м над землей.
Td - Температура точки росы - температура, при понижении до которой содержащийся в воздухе водяной пар достигнет насыщения.
f - Относительная влажность воздуха - влажноcть воздуха, измеренная на высоте 2 м над землей.
Te - Эффективная температура - температура, которую ощущает одетый по сезону человек в тени. Характеристика душности погоды. При расчете учитывается влияние влажности воздуха и скорости ветра на теплоощущения человека.
Tes - Эффективная температура на солнце - температура, которую ощущает человек, с поправкой на солнечный нагрев. Характеристика знойности погоды. Зависит от высоты солнца над горизонтом, облачности и скорости ветра. Ночью, в пасмурную погоду, а также при ветре 12 м/с и более поправка равна нулю.
P - Атмосферное давление - приведенное к уровню моря атмосферное давление.
Po - Атмосферное давление - измеренное на уровне метеостанции атмосферное давление.
Tmin - Минимальная температура - минимум температуры воздуха на высоте 2 м над землей.
Tmax - Максимальная температура - максимум температуры воздуха на высоте 2 м над землей.
R - Количество осадков - Количество выпавших осадков за период времени, мм. При наведении курсора мыши на число - период времени, за который выпало указанное количество осадков.
R24 - Количество осадков - Количество выпавших осадков за 24 часа, мм.
S - Снежный покров - Высота снежного покрова, см. При наведении курсора мыши на число - состояние снежного покрова и степень покрытия местности в баллах.